Wind_Speed
43 43 42 41 41 41 40 41 41 42 42 43 43 44 44 45 45 45 44 44 44 44 44 44 45 46 46 46 45 47 47 46 44 43 44 44 43 43 43 43 43 41 39
43 42 41 41 41 41 41 42 43 43 43 44 44 45 45 45 46 47 47 47 46 46 47 47 47 47 48 49 49 48 49 49 48 48 46 46 44 45 45 45 45 44 42
42 42 41 42 41 42 42 43 44 44 44 44 44 44 45 46 46 47 47 48 48 48 49 50 50 50 50 50 51 51 52 52 51 50 49 48 48 47 46 46 46 46 45
42 42 42 42 42 42 43 44 44 44 43 43 44 44 44 45 46 47 47 48 50 50 50 51 52 53 53 53 53 53 54 54 53 53 51 51 50 49 48 47 47 47 46
43 42 42 42 42 42 43 43 43 43 42 42 42 42 43 44 44 45 47 48 49 50 51 51 52 54 55 55 55 55 56 56 56 55 54 54 53 51 48 47 47 47 46
43 42 42 42 42 43 43 43 42 42 41 42 42 42 42 42 43 44 45 47 48 49 49 50 52 54 55 56 57 57 58 58 58 57 56 56 56 54 50 48 48 48 47
43 43 43 43 43 43 42 42 41 41 41 41 40 40 40 41 41 42 43 44 44 45 47 49 50 52 53 55 57 58 59 59 59 59 59 58 57 56 53 50 49 49 48
44 44 43 43 43 42 41 41 41 40 39 39 38 38 37 38 39 39 39 39 39 40 43 45 47 50 51 53 55 57 58 59 60 59 60 60 59 58 56 54 52 50 49
44 44 44 43 42 41 41 41 40 39 38 38 37 36 35 35 35 34 34 33 34 36 38 41 43 46 49 50 52 54 56 57 58 59 59 61 61 60 58 57 55 53 51
44 44 43 42 41 41 41 40 38 38 37 36 35 34 33 31 30 30 29 29 30 31 33 35 38 41 44 47 49 51 52 55 56 57 58 58 60 61 60 58 56 54 51
44 43 42 41 40 40 40 38 37 37 36 34 33 32 30 28 27 25 24 24 24 25 27 29 33 37 39 42 44 46 49 52 54 55 57 57 57 58 59 58 56 55 52
44 43 42 41 40 39 39 37 36 36 34 32 31 30 29 26 24 22 21 20 20 21 23 25 28 32 35 38 40 42 46 48 50 51 54 54 55 56 57 57 56 54 53
43 42 42 41 40 39 38 36 36 35 34 32 31 29 26 24 21 19 18 17 16 17 19 21 25 29 32 34 37 39 41 44 46 47 48 50 52 53 55 56 56 55 53
43 42 41 40 39 39 37 36 35 34 33 32 30 27 25 22 19 16 15 13 12 13 16 19 22 25 28 32 35 37 38 40 43 44 45 47 49 51 52 54 55 55 54
44 42 41 39 38 38 36 35 34 33 32 31 28 25 23 21 18 14 11 9 8 10 13 17 21 24 26 30 32 34 35 37 39 40 42 43 45 48 49 51 52 53 53
43 41 39 38 37 37 35 34 33 32 31 30 28 25 23 20 17 13 9 7 7 9 12 16 20 23 25 27 29 31 33 35 37 38 39 40 42 45 46 48 49 50 51
42 40 38 37 36 35 34 32 31 30 30 29 27 26 23 20 17 13 9 6 6 9 12 15 19 22 24 26 28 29 30 33 35 36 37 38 40 42 45 45 47 49 50
41 39 37 36 34 34 33 31 30 30 29 27 26 25 23 19 16 13 9 5 4 8 12 16 18 21 23 25 26 28 30 32 33 34 35 36 38 41 44 44 46 48 49
39 38 36 35 33 33 32 30 29 29 28 27 26 25 22 18 15 13 9 5 2 6 10 15 17 19 22 23 24 25 27 29 31 32 34 35 36 39 42 43 45 47 49
38 37 35 33 32 31 30 29 28 27 27 26 25 25 22 18 15 12 9 5 1 4 9 13 15 18 20 21 23 24 25 27 28 30 32 33 35 38 41 43 45 46 48
37 36 34 31 30 29 28 27 27 26 26 25 24 23 21 18 16 12 9 5 1 3 7 10 13 14 17 19 21 22 23 24 26 27 29 31 33 36 39 42 45 46 47
35 34 32 30 28 28 27 26 25 25 25 25 24 22 21 18 15 12 9 5 1 3 6 9 10 12 15 17 20 21 21 22 24 25 27 29 31 35 39 42 45 46 45
33 32 30 27 26 25 25 24 24 24 24 24 23 21 19 17 16 13 9 7 4 3 4 7 9 11 13 15 17 19 21 22 22 23 26 28 31 34 37 41 43 43 42
31 29 27 25 24 23 22 23 23 23 23 23 22 21 19 17 15 13 11 8 6 5 6 7 9 10 12 13 15 17 19 21 22 23 25 28 30 34 36 38 40 41 40
28 27 25 23 22 21 20 20 20 21 20 21 21 20 18 16 14 12 11 10 8 8 7 8 8 9 9 11 14 16 17 20 21 23 25 27 29 32 33 36 38 39 40
26 24 23 21 20 18 17 17 17 18 19 19 19 19 18 16 15 13 12 11 10 10 10 9 8 8 9 10 12 14 16 20 21 23 25 26 27 29 31 33 35 37 38
Wind_Direction
317 315 313 311 309 307 305 302 299 296 293 290 287 284 282 279 276 273 269 265 262 258 255 252 248 245 241 238 234 230 229 226 223 220 218 218 219 219 220 220 221 221 221
318 316 314 312 311 308 306 304 301 298 295 291 288 285 282 280 277 274 271 267 262 258 255 251 248 245 242 238 235 231 228 227 224 222 219 218 220 220 220 221 221 221 222
319 317 315 314 312 310 308 306 304 300 296 293 289 286 283 280 277 274 271 267 263 259 255 251 247 245 242 238 235 232 230 228 226 223 220 218 220 220 221 221 222 222 222
321 319 317 316 314 312 310 308 306 302 299 295 292 288 285 282 278 274 271 268 264 260 256 251 247 244 241 238 235 232 230 228 226 224 222 220 220 220 222 222 223 223 224
322 321 320 318 317 315 313 311 308 305 302 298 295 291 288 284 280 276 272 269 265 260 256 251 246 242 239 237 235 232 230 228 226 224 222 220 219 220 221 221 222 223 223
324 323 322 321 319 317 315 313 311 308 305 301 296 293 289 286 282 278 274 270 265 259 254 250 245 241 238 235 233 232 230 228 226 224 223 221 220 220 220 221 221 222 222
326 324 323 323 322 320 318 316 314 311 308 305 301 297 293 289 285 281 277 272 266 259 253 249 244 240 237 234 232 230 229 228 226 224 223 222 221 221 221 220 220 220 221
327 326 325 325 323 322 321 320 318 315 312 309 306 302 298 293 289 285 279 273 266 259 253 247 241 238 234 232 230 229 228 227 226 225 224 223 221 220 221 220 219 220 220
329 328 327 326 325 325 324 323 321 319 316 314 310 306 303 298 293 288 282 273 266 260 252 245 239 235 232 229 229 227 226 225 225 224 224 224 223 222 221 221 220 221 221
330 330 329 329 328 328 327 326 325 323 321 318 315 312 308 303 297 291 285 275 267 260 250 242 236 231 227 227 226 225 224 223 223 223 223 224 224 223 222 221 221 221 222
332 332 332 331 331 330 330 329 328 328 326 322 320 318 314 308 302 294 288 279 269 256 245 238 232 227 223 222 222 222 221 220 220 221 222 222 223 222 222 220 221 222 222
334 333 333 333 333 332 332 332 332 332 331 328 325 323 319 314 305 297 291 282 269 254 244 236 227 220 217 217 216 216 216 217 218 220 220 221 221 221 221 220 221 222 221
335 335 334 334 335 334 334 335 335 335 334 332 330 328 325 321 313 302 294 284 270 254 240 228 219 214 212 211 211 211 212 213 214 216 218 218 219 219 219 218 219 220 220
336 336 336 336 336 336 336 338 339 339 338 337 335 333 330 326 321 312 301 286 265 246 233 221 212 210 207 206 206 207 208 209 210 212 214 215 216 216 216 216 217 219 220
337 337 337 337 338 339 339 339 342 342 342 342 340 339 337 334 328 321 304 285 261 238 224 214 209 206 203 202 202 203 205 206 206 208 210 212 213 214 213 212 213 215 217
337 337 338 338 340 341 341 341 343 345 345 346 346 345 342 340 337 330 314 286 251 225 213 206 202 200 198 199 200 202 204 205 205 205 207 209 210 210 209 209 209 210 210
338 338 338 339 341 342 343 344 346 347 347 349 350 351 351 348 344 338 323 295 249 220 205 198 195 194 196 197 199 202 203 204 204 205 204 206 207 207 206 205 206 207 207
338 338 339 340 341 343 345 346 347 349 349 350 352 353 353 354 353 350 340 309 246 212 202 197 196 196 195 196 199 200 202 203 203 204 204 205 206 205 204 203 203 204 205
337 338 338 340 342 344 346 347 348 349 351 352 353 354 355 354 354 354 351 339 250 205 197 195 196 195 195 195 198 200 202 203 204 205 206 206 206 204 202 201 201 202 202
336 337 338 339 341 344 346 348 349 350 351 354 356 356 357 358 357 358 359 360 1 187 189 190 194 197 198 198 199 201 203 204 205 206 207 208 207 205 202 200 200 201 200
334 336 337 338 341 343 346 348 351 353 353 354 357 357 358 358 359 1 5 9 43 175 183 187 191 195 197 198 200 202 203 204 206 206 206 207 206 204 202 200 198 198 198
332 335 336 337 339 342 345 348 352 354 356 359 1 1 4 5 5 7 13 18 31 181 184 186 189 190 193 197 198 199 201 202 202 204 205 204 203 200 198 198 198 196 196
330 333 334 335 338 341 345 348 350 354 358 0 3 5 7 10 13 18 24 33 52 104 158 176 181 183 185 188 192 196 198 199 201 201 199 198 197 197 197 197 196 195 196
328 331 332 333 336 340 344 348 352 354 358 2 5 8 11 14 20 28 37 48 66 92 123 143 158 167 175 180 184 189 193 196 197 196 194 194 193 192 194 196 195 194 195
324 328 330 331 334 339 344 350 355 359 2 4 8 12 17 23 29 37 44 55 71 90 111 126 137 149 164 175 180 185 190 192 192 190 189 189 189 191 193 192 192 193 193
320 324 327 329 332 337 343 350 357 3 7 11 15 20 26 32 38 45 52 63 77 91 97 105 116 133 148 159 167 172 175 176 178 180 181 183 185 187 189 189 189 190 190
Height
5762 5755 5749 5742 5737 5731 5726 5721 5716 5712 5708 5704 5700 5698 5695 5694 5692 5692 5693 5694 5696 5698 5701 5704 5708 5712 5716 5721 5726 5732 5737 5743 5750 5756 5762 5768 5774 5780 5786 5792 5797 5803 5809
5753 5746 5739 5733 5726 5720 5715 5709 5704 5699 5694 5690 5686 5683 5681 5678 5677 5676 5676 5677 5679 5682 5685 5688 5692 5696 5702 5707 5712 5718 5725 5731 5738 5744 5750 5757 5763 5770 5776 5782 5788 5794 5801
5744 5736 5729 5723 5716 5710 5704 5697 5691 5686 5681 5676 5672 5668 5665 5663 5661 5660 5659 5660 5662 5665 5668 5671 5676 5680 5686 5691 5697 5704 5710 5717 5725 5731 5738 5745 5752 5759 5765 5772 5779 5785 5791
5735 5727 5720 5713 5706 5699 5692 5685 5679 5673 5667 5662 5657 5653 5650 5647 5645 5643 5643 5643 5644 5646 5649 5653 5658 5663 5669 5675 5682 5688 5695 5703 5711 5718 5726 5733 5740 5747 5754 5761 5768 5775 5782
5725 5718 5710 5703 5696 5688 5681 5674 5667 5660 5654 5648 5643 5638 5634 5631 5628 5626 5625 5625 5625 5627 5630 5634 5639 5644 5651 5658 5665 5673 5680 5688 5696 5704 5712 5720 5728 5735 5743 5750 5757 5765 5771
5717 5709 5701 5693 5685 5678 5670 5662 5655 5648 5641 5635 5629 5624 5619 5615 5612 5609 5607 5606 5606 5608 5611 5615 5620 5626 5633 5640 5648 5656 5664 5673 5682 5690 5699 5707 5715 5723 5731 5739 5747 5755 5762
5708 5700 5692 5684 5676 5668 5660 5652 5644 5637 5629 5622 5615 5610 5605 5600 5596 5592 5589 5588 5588 5589 5592 5596 5601 5608 5615 5622 5630 5639 5648 5657 5667 5676 5685 5694 5703 5712 5719 5728 5736 5744 5752
5699 5691 5683 5675 5666 5658 5650 5642 5634 5626 5618 5610 5603 5597 5591 5586 5581 5577 5573 5571 5571 5572 5574 5578 5583 5590 5598 5605 5614 5623 5632 5642 5652 5662 5672 5681 5689 5697 5706 5716 5724 5732 5740
5691 5683 5674 5666 5658 5649 5641 5632 5624 5615 5607 5599 5592 5585 5579 5573 5567 5563 5559 5557 5557 5557 5559 5562 5568 5574 5582 5590 5599 5609 5618 5627 5636 5647 5656 5666 5675 5685 5694 5703 5711 5720 5729
5684 5675 5666 5658 5649 5640 5632 5623 5614 5606 5598 5590 5582 5574 5568 5562 5556 5552 5548 5546 5545 5544 5545 5549 5554 5560 5568 5576 5585 5594 5604 5613 5623 5633 5643 5652 5662 5672 5682 5691 5700 5710 5719
5676 5667 5658 5650 5641 5632 5624 5615 5606 5598 5589 5581 5573 5566 5558 5552 5547 5543 5539 5536 5535 5534 5536 5539 5544 5549 5556 5564 5573 5582 5591 5600 5610 5620 5630 5640 5650 5660 5670 5679 5689 5699 5709
5669 5660 5651 5643 5634 5625 5617 5608 5599 5591 5582 5574 5566 5558 5551 5545 5539 5535 5532 5529 5528 5527 5529 5531 5535 5541 5548 5555 5563 5572 5580 5589 5599 5608 5618 5628 5638 5648 5658 5668 5678 5688 5698
5662 5653 5644 5636 5627 5618 5610 5601 5593 5584 5576 5567 5559 5552 5544 5538 5533 5529 5526 5523 5521 5521 5523 5525 5529 5535 5541 5548 5555 5563 5571 5580 5589 5599 5608 5617 5626 5636 5645 5656 5666 5676 5687
5656 5647 5639 5630 5621 5612 5604 5595 5587 5579 5570 5562 5554 5546 5540 5533 5528 5524 5521 5518 5517 5517 5518 5521 5525 5530 5536 5542 5549 5557 5564 5572 5581 5590 5598 5606 5615 5625 5635 5645 5656 5666 5677
5651 5642 5633 5625 5616 5608 5599 5591 5583 5574 5566 5558 5550 5543 5536 5530 5525 5521 5517 5515 5514 5514 5516 5518 5522 5527 5532 5538 5545 5552 5559 5566 5574 5582 5590 5598 5607 5616 5626 5635 5645 5656 5667
5645 5637 5628 5620 5612 5604 5595 5587 5579 5571 5563 5555 5547 5540 5534 5528 5523 5519 5515 5513 5512 5513 5514 5516 5520 5524 5530 5535 5541 5547 5554 5561 5568 5575 5583 5591 5599 5608 5617 5626 5636 5646 5657
5640 5632 5624 5616 5608 5600 5592 5584 5576 5569 5560 5553 5546 5539 5532 5527 5522 5518 5515 5512 5511 5511 5512 5515 5518 5523 5528 5533 5539 5544 5550 5556 5563 5570 5577 5584 5592 5600 5608 5618 5628 5637 5647
5636 5628 5620 5612 5604 5597 5589 5582 5574 5567 5559 5552 5545 5538 5532 5526 5521 5517 5514 5512 5511 5510 5512 5514 5517 5521 5526 5531 5536 5542 5547 5553 5559 5566 5572 5579 5586 5593 5602 5611 5620 5629 5639
5631 5624 5616 5608 5601 5594 5587 5580 5572 5565 5558 5551 5544 5537 5531 5526 5521 5517 5514 5512 5511 5510 5511 5514 5517 5520 5525 5529 5534 5539 5544 5550 5555 5561 5567 5574 5580 5588 5596 5604 5613 5622 5632
5627 5619 5612 5605 5599 5592 5585 5578 5571 5564 5557 5550 5544 5537 5531 5526 5522 5518 5514 5512 5511 5511 5512 5514 5516 5520 5523 5527 5532 5537 5542 5547 5552 5557 5562 5568 5575 5582 5590 5598 5607 5616 5625
5623 5616 5609 5602 5596 5590 5583 5576 5570 5563 5557 5550 5544 5538 5532 5527 5522 5518 5515 5513 5512 5511 5512 5514 5516 5519 5522 5526 5530 5535 5539 5544 5549 5554 5558 5563 5570 5577 5585 5593 5602 5610 5619
5618 5612 5605 5599 5593 5588 5582 5575 5569 5563 5557 5550 5544 5538 5533 5528 5523 5519 5516 5514 5512 5512 5512 5514 5516 5518 5521 5524 5528 5533 5537 5541 5546 5550 5555 5560 5566 5573 5581 5589 5597 5606 5614
5614 5608 5602 5597 5591 5586 5580 5574 5569 5563 5557 5551 5545 5539 5534 5529 5525 5521 5518 5515 5514 5513 5513 5514 5516 5517 5520 5523 5527 5531 5535 5539 5544 5548 5552 5558 5563 5570 5578 5586 5594 5603 5611
5609 5604 5599 5594 5589 5584 5579 5574 5568 5563 5557 5552 5546 5541 5536 5531 5527 5524 5520 5518 5516 5515 5515 5516 5517 5519 5521 5523 5526 5530 5534 5538 5542 5546 5551 5556 5562 5569 5576 5583 5591 5599 5607
5605 5600 5596 5591 5586 5582 5578 5573 5568 5563 5558 5553 5548 5543 5538 5533 5530 5527 5524 5521 5520 5519 5518 5519 5519 5521 5522 5524 5527 5530 5533 5537 5541 5545 5550 5555 5561 5567 5574 5581 5588 5596 5604
5600 5596 5592 5588 5584 5581 5577 5573 5569 5564 5560 5555 5550 5545 5541 5537 5534 5531 5528 5526 5525 5524 5523 5523 5523 5524 5525 5526 5528 5531 5534 5537 5541 5545 5550 5555 5561 5567 5573 5580 5587 5594 5602